TimeAKDT,TemperatureF,Dew PointF,Humidity,Sea Level PressureIn,VisibilityMPH,Wind Direction,Wind SpeedMPH,Gust SpeedMPH,PrecipitationIn,Events,Conditions,WindDirDegrees,DateUTC
12:11 AM,33.8,33.8,100,30.25,3.0,East,3.5,-,N/A,,Partly Cloudy,90,2013-10-22 08:11:00
12:21 AM,32.0,32.0,100,30.24,1.8,Calm,Calm,-,N/A,,Mostly Cloudy,0,2013-10-22 08:21:00
12:29 AM,32.0,32.0,100,30.25,3.0,Calm,Calm,-,N/A,,Scattered Clouds,0,2013-10-22 08:29:00
12:44 AM,32.0,32.0,100,30.25,9.0,Calm,Calm,-,N/A,,Mostly Cloudy,0,2013-10-22 08:44:00
12:56 AM,32.0,32.0,100,30.26,10.0,Calm,Calm,-,N/A,,Overcast,0,2013-10-22 08:56:00
1:39 AM,33.8,33.8,100,30.25,10.0,Calm,Calm,-,N/A,,Overcast,0,2013-10-22 09:39:00
1:56 AM,34.0,34.0,100,30.26,10.0,Calm,Calm,-,N/A,,Overcast,0,2013-10-22 09:56:00
2:56 AM,34.9,34.9,100,30.27,10.0,Calm,Calm,-,N/A,,Overcast,0,2013-10-22 10:56:00
3:56 AM,35.6,35.6,100,30.25,10.0,Calm,Calm,-,N/A,,Overcast,0,2013-10-22 11:56:00
4:56 AM,34.9,34.9,100,30.25,10.0,Calm,Calm,-,N/A,,Overcast,0,2013-10-22 12:56:00
5:41 AM,35.6,35.6,100,30.25,10.0,Calm,Calm,-,N/A,,Overcast,0,2013-10-22 13:41:00
5:56 AM,34.9,34.9,100,30.25,8.0,Calm,Calm,-,N/A,,Overcast,0,2013-10-22 13:56:00
6:07 AM,35.6,35.6,100,30.24,1.8,East,4.6,-,N/A,,Overcast,90,2013-10-22 14:07:00
6:10 AM,35.6,35.6,100,30.24,1.0,East,3.5,-,N/A,,Overcast,90,2013-10-22 14:10:00
6:15 AM,35.6,35.6,100,30.25,0.5,East,3.5,-,N/A,Fog,Fog,100,2013-10-22 14:15:00
6:56 AM,34.9,34.9,100,30.25,0.5,Calm,Calm,-,N/A,Fog,Fog,0,2013-10-22 14:56:00
7:56 AM,34.9,34.9,100,30.24,0.5,Calm,Calm,-,N/A,Fog,Fog,0,2013-10-22 15:56:00
8:11 AM,35.6,35.6,100,30.24,1.0,Calm,Calm,-,N/A,,Overcast,0,2013-10-22 16:11:00
8:14 AM,35.6,35.6,100,30.24,1.5,Calm,Calm,-,N/A,,Overcast,0,2013-10-22 16:14:00
8:23 AM,35.6,35.6,100,30.24,3.0,Calm,Calm,-,N/A,,Overcast,0,2013-10-22 16:23:00
8:56 AM,34.9,34.9,100,30.25,0.5,Calm,Calm,-,N/A,Fog,Fog,0,2013-10-22 16:56:00
9:19 AM,35.6,35.6,100,30.25,0.2,Calm,Calm,-,N/A,Fog,Fog,0,2013-10-22 17:19:00
9:56 AM,37.9,37.9,100,30.24,0.2,Calm,Calm,-,N/A,Fog,Fog,0,2013-10-22 17:56:00
10:07 AM,37.4,37.4,100,30.24,0.8,Calm,Calm,-,N/A,,Overcast,0,2013-10-22 18:07:00
10:15 AM,37.4,37.4,100,30.24,0.2,Calm,Calm,-,N/A,Fog,Fog,0,2013-10-22 18:15:00
10:35 AM,39.2,39.2,100,30.23,0.8,Calm,Calm,-,N/A,,Overcast,0,2013-10-22 18:35:00
10:37 AM,39.2,39.2,100,30.23,1.2,Calm,Calm,-,N/A,,Overcast,0,2013-10-22 18:37:00
10:39 AM,39.2,39.2,100,30.23,2.0,Calm,Calm,-,N/A,,Overcast,0,2013-10-22 18:39:00
10:56 AM,39.9,39.9,100,30.24,6.0,Calm,Calm,-,N/A,,Overcast,0,2013-10-22 18:56:00
11:28 AM,42.8,42.8,100,30.23,10.0,Calm,Calm,-,N/A,,Partly Cloudy,0,2013-10-22 19:28:00
11:56 AM,43.9,41.9,93,30.23,10.0,Calm,Calm,-,N/A,,Overcast,0,2013-10-22 19:56:00
12:37 PM,44.6,41.0,87,30.21,10.0,East,4.6,-,N/A,,Partly Cloudy,90,2013-10-22 20:37:00
12:56 PM,45.0,41.0,86,30.22,10.0,ESE,6.9,-,N/A,,Clear,110,2013-10-22 20:56:00
1:56 PM,45.9,41.0,83,30.19,10.0,East,3.5,-,N/A,,Clear,100,2013-10-22 21:56:00
2:56 PM,45.9,41.0,83,30.19,10.0,ESE,5.8,-,N/A,,Clear,120,2013-10-22 22:56:00
3:56 PM,45.0,39.9,82,30.17,10.0,Calm,Calm,-,N/A,,Clear,0,2013-10-22 23:56:00
4:56 PM,43.9,41.9,93,30.15,10.0,Calm,Calm,-,N/A,,Clear,0,2013-10-23 00:56:00
5:56 PM,41.9,41.0,97,30.13,10.0,Calm,Calm,-,N/A,,Clear,0,2013-10-23 01:56:00
6:56 PM,41.0,41.0,100,30.12,10.0,Calm,Calm,-,N/A,,Clear,0,2013-10-23 02:56:00
7:56 PM,41.0,41.0,100,30.11,10.0,Calm,Calm,-,N/A,,Mostly Cloudy,0,2013-10-23 03:56:00
8:56 PM,43.9,37.9,80,30.10,9.0,ENE,8.1,-,0.00,Rain,Light Rain,70,2013-10-23 04:56:00
9:56 PM,42.8,39.2,87,30.07,6.0,ENE,4.6,-,N/A,Rain,Light Rain,60,2013-10-23 05:56:00
10:56 PM,41.9,41.0,97,30.07,9.0,North,3.5,-,0.02,Rain,Light Rain,10,2013-10-23 06:56:00
11:56 PM,41.9,41.0,97,30.05,7.0,ENE,5.8,-,0.03,Rain,Light Rain,60,2013-10-23 07:56:00